CST,Max TemperatureF,Mean TemperatureF,Min TemperatureF,Max Dew PointF,MeanDew PointF,Min DewpointF,Max Humidity, Mean Humidity, Min Humidity, Max Sea Level PressureIn, Mean Sea Level PressureIn, Min Sea Level PressureIn, Max VisibilityMiles, Mean VisibilityMiles, Min VisibilityMiles, Max Wind SpeedMPH, Mean Wind SpeedMPH, Max Gust SpeedMPH,PrecipitationIn, CloudCover, Events, WindDirDegrees
2013-1-1,21,13,5,11,6,1,88,71,54,30.37,30.29,30.19,10,10,10,14,5,17,0.00,1,,315
2013-1-2,31,18,5,21,14,2,88,76,63,30.27,30.20,30.13,10,10,9,15,8,21,0.00,2,,229
2013-1-3,33,21,8,25,19,5,96,79,62,30.44,30.33,30.18,10,9,4,17,6,26,0.00,4,,281
2013-1-4,36,22,8,24,17,7,88,74,59,30.41,30.35,30.26,10,9,5,17,7,22,0.00,0,,224
2013-1-5,37,31,24,34,29,20,100,86,72,30.27,30.16,30.03,10,7,0,18,10,24,0.06,6,Fog-Snow,216
2013-1-6,35,27,18,23,18,12,81,64,47,30.38,30.26,30.07,10,9,7,20,9,25,0.00,3,,273
2013-1-7,41,31,20,27,23,17,84,69,54,30.33,30.21,30.08,10,10,9,17,10,23,0.00,0,,197
2013-1-8,45,36,28,34,27,23,79,67,55,30.15,30.08,30.01,10,10,10,15,8,21,0.00,0,,201
2013-1-9,53,40,27,33,27,20,85,56,26,30.48,30.38,30.18,10,10,10,13,6,17,0.00,0,,273
2013-1-10,41,36,31,41,34,25,100,77,54,30.43,30.09,29.75,10,4,0,15,8,22,0.20,6,Fog-Rain,111
2013-1-11,56,48,40,48,46,43,100,83,66,29.78,29.71,29.62,10,6,0,23,13,31,0.01,3,Fog,197
2013-1-12,53,37,21,44,21,14,88,73,40,30.09,29.98,29.71,10,7,1,20,12,29,0.02,6,Snow,317
2013-1-13,22,16,9,12,8,4,83,70,57,30.38,30.21,30.02,10,10,10,17,8,23,0.00,2,,306
2013-1-14,29,17,4,12,7,1,88,65,42,30.56,30.48,30.40,10,10,10,9,3,12,0.00,0,,288
2013-1-15,29,19,8,12,8,4,92,66,39,30.46,30.35,30.13,10,10,10,8,3,21,0.00,1,,155
2013-1-16,41,27,13,26,18,8,80,62,44,30.19,30.09,29.99,10,10,10,17,9,24,0.00,2,,230
2013-1-17,41,32,22,30,22,15,92,67,41,30.49,30.38,30.19,10,10,10,16,8,22,0.00,2,,349
2013-1-18,53,38,23,30,27,20,81,60,38,30.46,30.21,30.02,10,10,10,26,15,39,0.00,0,,208
2013-1-19,57,45,33,32,29,15,70,51,32,30.22,30.01,29.92,10,10,10,24,14,32,0.00,0,,255
2013-1-20,33,23,13,14,7,3,80,63,45,30.41,30.37,30.26,10,10,10,20,7,28,0.00,2,,334
2013-1-21,14,10,6,7,-4,-10,84,61,38,30.47,30.43,30.36,10,10,10,22,9,32,0.00,2,,296
2013-1-22,17,12,6,6,1,-3,70,60,49,30.52,30.44,30.38,10,10,9,9,3,14,T,6,Snow,51
2013-1-23,40,24,8,18,10,0,91,66,40,30.50,30.31,30.18,10,10,10,21,9,30,0.00,0,,268
2013-1-24,22,14,6,8,1,-3,76,60,43,30.64,30.48,30.25,10,10,10,18,11,23,0.00,2,,85
2013-1-25,46,32,18,20,14,10,69,50,31,30.29,30.20,30.13,10,10,10,17,7,23,0.00,3,,281
2013-1-26,38,25,12,16,11,5,77,55,32,30.42,30.33,30.24,10,10,10,13,8,16,0.00,0,,92
2013-1-27,51,40,28,49,34,16,100,79,58,30.23,29.95,29.79,10,3,0,20,10,26,0.26,6,Fog-Rain,137
2013-1-28,63,55,46,56,51,46,100,89,78,29.93,29.84,29.71,10,4,0,18,8,26,0.05,7,Fog-Rain,152
2013-1-29,63,49,34,58,51,33,100,89,78,29.68,29.58,29.48,10,5,2,87,12,130,1.28,7,Rain-Thunderstorm,260
2013-1-30,34,28,22,34,24,13,100,83,65,29.93,29.60,29.40,10,5,0,25,15,35,0.22,8,Fog-Rain-Snow,310
2013-1-31,22,13,3,15,3,-6,74,66,58,30.48,30.17,29.94,10,10,9,14,13,18,T,5,Snow,289